Temperature
16 17 17 17 20 21 21 20 20 20 20 18 18 18 20 20 20 18 14 14 14 14 14 14 14 14 14 14 14 14 14 14 14 14 14 14 15 14 14 14 14 14 14 14 14 14 15 15 15
16 16 17 18 21 21 20 20 19 19 18 16 16 17 18 18 15 14 13 14 14 14 14 14 14 14 14 14 14 14 14 14 14 14 14 14 14 14 14 14 14 14 14 14 14 14 14 14 14
16 16 17 20 20 21 20 19 19 18 16 16 17 17 17 16 14 13 13 13 13 13 13 14 14 14 14 14 14 14 14 14 14 14 14 14 14 14 14 14 14 14 14 14 14 14 14 14 14
16 16 18 20 19 19 19 19 18 17 16 16 17 17 15 13 13 13 13 13 13 13 13 13 13 14 14 14 14 14 14 14 14 14 13 13 13 13 13 13 13 13 13 14 14 13 14 14 14
16 17 19 19 19 18 18 17 17 18 18 17 17 17 15 13 13 13 13 13 13 13 13 13 13 13 13 13 13 13 14 13 13 13 13 13 13 13 13 13 13 13 13 13 13 13 13 13 14
16 18 19 19 18 18 18 16 16 18 17 16 16 17 15 13 13 13 13 12 13 13 13 13 13 13 13 13 13 13 13 13 13 13 13 13 13 13 13 13 13 13 13 13 13 13 13 13 13
17 18 18 18 18 17 17 16 17 17 17 16 16 17 14 13 13 13 12 12 12 12 12 12 13 13 13 13 13 13 13 13 13 13 13 13 13 13 13 13 13 13 13 13 13 12 13 13 13
15 18 17 17 17 17 16 15 15 16 16 14 14 16 15 12 12 12 12 12 12 12 12 12 12 12 12 12 12 12 12 12 12 12 12 12 12 12 12 12 12 12 12 12 12 12 12 12 12
14 17 17 17 17 17 15 15 14 13 14 13 13 13 13 12 12 12 11 12 12 12 12 12 12 12 12 12 12 12 12 12 12 12 12 12 12 12 12 12 12 12 12 12 12 12 12 12 12
15 16 17 16 16 16 15 15 14 14 15 14 13 12 12 12 12 11 11 11 11 11 11 11 12 12 12 12 12 12 12 11 12 12 12 12 12 12 12 12 12 12 12 12 12 12 12 11 11
14 15 15 14 14 14 14 14 13 15 15 15 14 13 12 11 11 11 11 11 11 11 11 11 11 11 11 11 11 11 11 11 11 11 11 11 11 11 11 11 11 11 11 11 11 11 11 11 11
13 13 13 13 12 13 13 13 13 14 14 13 13 12 12 11 11 11 11 11 11 11 11 11 11 11 11 11 11 11 11 11 11 11 11 11 11 11 11 11 11 11 11 11 11 11 11 11 11
13 13 12 12 11 12 12 13 13 13 12 12 12 12 11 11 11 11 11 10 10 10 11 10 11 10 11 11 11 11 11 11 11 11 10 11 11 11 11 11 10 10 10 10 10 10 10 10 10
12 12 12 12 12 11 12 12 12 13 11 11 11 11 11 11 11 10 10 10 10 10 10 10 10 10 10 10 10 10 10 10 10 10 10 10 10 10 10 10 10 10 10 10 10 10 10 10 10
11 12 12 12 12 11 12 13 13 12 11 11 11 11 10 10 10 10 10 10 10 10 10 10 10 10 10 10 10 10 10 10 10 10 10 10 10 10 10 9 9 9 9 9 9 9 9 9 9
12 12 13 13 12 11 12 14 14 11 11 11 11 10 10 10 10 10 10 10 10 10 10 10 9 9 9 9 9 9 9 9 9 9 9 9 9 9 9 9 9 9 9 9 9 9 9 9 8
12 13 13 13 12 11 12 13 13 11 10 11 11 10 10 9 9 9 9 9 9 9 9 9 9 9 9 9 9 9 9 9 9 9 9 9 9 9 9 9 9 9 8 8 8 8 8 8 8
12 13 12 12 12 11 12 12 13 11 10 11 11 10 10 9 9 9 9 9 9 9 9 9 8 8 8 8 8 8 8 8 8 8 8 8 8 8 8 8 8 8 8 8 8 8 8 8 8
11 11 12 12 11 10 11 12 12 11 10 10 10 10 10 9 9 8 8 8 8 8 8 8 8 8 8 8 8 8 8 8 8 8 8 8 8 8 8 8 8 8 7 7 7 7 7 7 7
10 11 11 11 10 10 10 11 12 11 10 10 10 10 9 9 8 8 8 8 8 8 8 8 8 7 7 7 7 7 7 7 7 7 7 7 7 7 7 7 7 7 7 7 7 7 7 7 7
10 10 10 10 9 9 9 11 12 11 10 9 9 9 8 8 8 7 7 7 7 7 8 7 7 7 7 7 7 7 7 7 7 7 7 7 7 7 7 7 7 7 6 6 6 6 6 6 6
10 9 9 8 9 10 9 11 12 11 10 10 9 8 8 8 7 7 7 7 7 7 7 7 7 7 7 6 6 6 6 6 7 6 7 7 6 6 6 6 6 6 6 6 6 6 6 6 5
8 8 8 8 8 8 9 9 12 11 10 10 10 8 8 7 7 7 7 7 7 7 7 7 6 6 6 6 6 6 6 6 6 6 6 6 6 6 6 6 6 6 6 6 5 6 5 5 5
7 7 7 7 8 8 9 9 11 11 10 10 10 8 7 7 7 6 6 7 7 6 6 6 6 6 6 6 5 5 5 6 5 5 5 5 5 5 5 5 5 5 5 5 5 5 5 5 5
7 8 8 8 8 9 8 8 10 11 10 9 9 8 7 7 6 6 6 6 6 6 6 6 6 6 6 5 5 5 5 5 5 5 5 5 5 5 5 4 4 5 5 5 5 4 4 4 4
7 8 8 9 9 10 7 8 10 9 8 7 7 7 6 6 6 6 6 5 6 6 6 5 5 5 5 5 5 5 5 5 5 5 4 4 4 4 4 4 4 4 4 4 4 4 4 4 4
6 7 7 7 6 7 9 9 9 8 8 7 7 6 6 6 6 5 5 5 5 5 5 5 5 5 5 5 5 5 4 4 4 4 4 4 4 4 4 4 4 4 4 4 4 4 4 3 3
6 6 6 6 6 8 9 9 10 9 8 7 7 6 6 6 5 5 5 5 5 5 5 5 5 5 4 4 4 4 4 4 4 4 4 4 4 3 3 3 3 3 3 3 3 3 3 3 3
4 4 5 6 6 7 8 10 9 8 8 7 6 5 5 5 5 5 5 4 4 4 4 4 4 4 4 3 4 4 4 4 3 3 3 3 3 3 3 3 3 3 3 3 3 3 3 3 3
5 5 5 5 5 5 7 8 8 6 6 6 5 5 5 5 4 4 4 4 4 4 4 4 3 3 3 3 3 3 3 3 3 3 3 3 3 3 3 3 3 3 3 3 3 3 2 2 2
Wind_Speed
4 2 2 2 3 4 6 4 3 4 3 2 2 1 1 0 1 3 4 4 4 5 6 7 7 8 8 8 8 9 9 9 9 9 9 8 8 9 9 9 9 9 10 10 10 10 10 11 11
2 1 2 3 5 7 5 5 5 3 3 3 2 2 2 2 3 4 4 3 5 6 6 7 7 8 8 8 8 8 9 9 8 8 8 8 8 7 8 8 8 9 9 9 9 9 9 9 9
1 1 2 3 5 7 4 4 4 3 3 3 3 1 0 2 3 3 3 5 5 6 6 7 7 8 8 8 8 8 9 8 8 8 8 8 7 7 7 8 7 8 8 8 8 8 9 9 8
2 2 2 5 7 4 3 3 3 4 3 3 3 3 2 3 2 2 4 5 6 6 6 7 7 7 7 8 8 8 8 8 7 8 8 7 7 7 7 7 7 7 7 7 7 8 8 8 8
1 2 4 6 6 3 2 1 3 5 4 4 4 3 4 3 3 4 5 5 5 5 5 7 7 7 7 7 7 7 7 7 7 7 8 7 7 7 7 7 7 7 7 7 7 8 8 8 7
2 3 5 8 7 4 3 3 4 4 4 3 4 4 3 4 3 4 5 5 5 5 5 6 6 6 6 7 7 6 6 6 6 7 7 7 7 7 7 7 7 6 7 7 7 7 7 7 7
3 3 5 6 6 5 3 3 4 4 4 3 3 4 4 4 3 4 5 5 4 4 4 4 5 5 5 6 6 5 5 5 6 6 6 6 6 6 7 6 6 6 6 7 7 6 6 6 6
1 3 5 6 7 5 3 3 2 3 3 1 2 3 3 4 5 5 5 4 3 3 3 3 4 4 4 4 5 5 5 5 5 6 6 5 5 6 6 6 5 5 6 6 6 7 7 7 7
2 5 7 7 6 4 4 3 2 1 2 2 2 1 1 6 6 6 4 3 3 2 2 2 3 3 3 3 4 5 5 5 5 5 5 4 3 4 4 5 6 6 6 6 7 7 7 6 6
3 6 7 4 4 3 3 3 2 3 4 4 3 2 4 6 7 7 6 5 5 3 2 1 2 2 2 2 3 3 3 3 3 3 2 2 2 3 3 5 6 6 6 6 7 7 6 4 4
3 5 4 3 3 3 4 3 3 5 6 6 5 4 5 7 7 7 7 7 6 5 3 2 2 2 2 2 2 2 2 2 2 2 2 1 2 2 2 3 3 3 4 4 5 4 3 3 3
3 4 3 3 2 3 4 3 4 7 6 4 4 4 7 8 8 8 7 7 6 5 4 3 3 3 3 2 2 2 2 2 2 2 2 2 1 1 2 2 2 2 2 2 3 2 3 3 3
5 3 3 3 3 3 4 6 6 8 6 3 3 5 7 8 8 7 6 6 6 6 5 4 4 4 3 3 2 2 2 2 2 2 2 2 2 1 1 1 2 2 2 2 2 2 2 2 2
4 3 3 3 4 3 5 6 5 7 4 4 5 6 7 7 7 7 6 7 7 7 6 5 5 4 4 3 3 2 2 2 2 2 2 2 2 1 1 1 1 1 2 1 1 1 2 1 2
3 3 4 4 4 3 4 8 8 6 5 6 6 6 6 6 7 7 7 7 7 7 6 5 5 4 4 3 3 3 2 2 2 2 2 2 2 2 2 2 1 1 1 1 1 2 2 1 1
3 4 5 4 4 4 6 11 7 4 6 8 7 6 6 6 7 6 6 6 6 6 6 5 4 4 4 4 3 3 3 3 2 2 2 2 2 3 2 2 1 1 1 1 1 1 1 1 1
4 6 7 5 4 4 7 10 6 5 7 8 8 7 7 6 6 6 6 6 5 5 6 6 5 5 5 4 3 3 3 3 2 2 2 2 2 3 2 2 1 2 1 1 1 1 1 1 1
6 7 7 8 4 6 10 13 10 8 9 10 9 9 8 7 6 6 5 5 5 5 5 5 5 5 4 4 3 3 2 2 2 2 2 2 3 3 2 2 2 2 2 2 2 1 1 1 1
5 7 9 7 3 7 12 15 13 10 10 10 9 9 8 8 6 5 5 5 5 5 5 5 5 5 4 4 3 3 3 2 2 2 3 3 3 3 3 2 2 2 2 2 2 2 2 1 1
6 8 9 6 3 6 11 15 13 10 10 10 9 9 8 7 6 5 5 5 5 5 5 5 5 5 5 4 4 3 3 3 2 2 3 3 3 3 3 3 3 3 2 3 3 2 2 1 1
7 8 8 7 6 6 8 10 9 7 7 7 7 7 7 7 6 6 6 6 5 5 6 5 5 5 5 5 3 3 2 2 2 3 2 3 3 4 4 4 4 3 3 3 4 4 4 2 2
7 5 6 6 6 5 4 7 8 7 7 6 6 5 5 5 5 5 5 6 6 6 6 6 6 5 5 5 5 5 5 4 4 3 3 3 3 4 4 4 4 4 3 4 4 4 4 4 3
3 2 4 6 6 7 6 6 7 5 7 7 6 5 5 5 4 5 5 5 5 5 5 5 6 5 5 5 6 6 6 5 3 3 4 3 3 4 4 5 4 4 3 4 4 4 4 4 4
2 1 1 2 4 7 8 8 8 5 7 6 5 5 5 5 4 4 4 4 4 4 5 5 6 5 5 6 6 7 7 6 5 5 4 4 3 3 4 5 5 4 4 4 4 4 5 5 5
2 2 2 3 5 6 4 7 9 5 5 6 6 6 5 4 4 4 4 4 4 5 5 5 6 6 6 6 7 7 7 7 7 6 5 5 4 4 5 5 5 4 5 5 4 4 5 5 6
5 5 4 5 6 5 5 9 6 3 3 4 5 4 4 4 4 5 5 5 5 6 6 6 6 6 6 6 7 7 7 6 5 6 6 6 5 5 5 5 5 5 5 5 5 4 5 5 5
4 5 3 2 4 6 6 7 7 4 4 4 4 4 4 5 5 5 5 5 5 6 6 7 7 6 6 6 6 6 6 6 6 6 6 5 5 5 5 5 5 5 5 5 5 4 5 5 5
2 3 3 4 4 7 8 8 6 4 4 3 4 5 6 6 5 5 5 5 5 5 6 7 7 7 6 6 6 5 6 6 5 6 6 6 6 5 5 6 5 5 5 5 5 4 5 5 5
4 4 4 4 4 5 7 6 2 3 3 4 5 5 6 7 6 6 6 5 5 5 5 6 6 6 5 5 5 5 5 5 5 5 6 6 6 6 6 6 6 5 5 5 5 5 5 5 5
5 5 6 5 5 5 7 7 0 2 3 4 5 6 7 6 6 6 6 5 4 4 4 5 5 5 5 4 5 5 4 4 5 5 5 5 6 5 5 5 5 5 5 5 5 5 5 5 5
Wind_Direction
327 311 250 227 213 213 218 194 184 163 159 124 124 181 199 176 338 82 94 113 118 132 137 137 121 117 113 107 100 102 100 97 95 93 88 92 102 101 96 92 89 87 85 85 86 84 81 79 77
327 275 223 219 226 220 209 193 188 172 126 127 140 161 165 111 52 91 115 116 131 129 134 133 120 116 112 107 103 103 103 100 99 96 93 89 90 95 96 94 91 89 86 85 86 85 83 83 81
267 287 217 203 224 231 200 165 165 135 151 181 163 165 272 100 105 114 105 134 134 127 128 125 120 115 113 110 106 102 100 100 99 97 94 91 86 84 91 92 92 92 90 89 87 88 87 87 86
233 189 200 220 220 228 217 160 157 160 162 186 185 153 123 71 99 106 122 137 131 123 119 118 114 113 112 111 106 101 98 96 99 97 96 95 92 86 84 90 93 93 93 94 92 90 90 90 89
233 205 202 217 225 213 211 209 192 192 182 174 191 172 141 108 84 110 128 129 124 117 110 112 108 109 107 108 110 107 102 99 100 99 95 94 94 91 88 85 91 94 94 94 95 93 90 90 90
182 203 216 222 217 208 207 201 194 203 187 174 183 176 141 121 116 125 132 126 117 113 111 112 108 102 101 101 106 110 109 105 106 102 96 93 92 92 91 86 88 94 96 96 97 96 93 92 92
207 200 222 221 217 216 198 180 205 206 204 195 198 185 154 143 128 134 135 127 114 111 109 106 116 111 103 101 101 102 110 110 105 105 101 95 94 95 92 91 89 97 100 99 98 98 98 96 93
231 194 206 212 215 217 176 177 208 229 222 171 217 211 177 154 144 142 139 129 116 113 114 110 112 113 113 114 106 99 103 106 102 99 96 95 97 96 90 92 90 98 109 108 105 103 96 92 87
216 212 219 211 211 206 176 189 183 228 195 200 216 280 82 140 156 159 161 161 151 143 138 126 122 118 113 116 113 112 107 103 106 104 99 105 116 109 97 85 80 88 106 110 106 99 95 95 93
204 218 223 213 208 212 200 218 205 199 214 218 212 193 148 159 174 182 190 198 198 191 184 171 155 145 135 123 125 127 129 125 125 125 124 125 115 104 98 91 87 82 91 107 101 96 100 99 100
199 219 213 210 202 210 213 225 222 225 237 239 231 206 179 181 189 199 205 210 212 205 197 196 183 169 158 145 142 136 132 132 133 135 134 131 124 115 115 109 111 104 97 114 109 110 99 84 78
197 218 219 210 196 215 226 228 236 237 254 274 250 203 189 193 198 205 211 214 216 213 207 204 196 183 175 167 160 152 142 140 134 133 134 131 113 116 121 116 119 119 102 103 117 112 103 92 79
205 214 221 232 235 245 240 242 254 248 259 266 215 189 199 206 211 215 217 217 218 219 215 212 203 192 180 170 165 163 160 159 151 151 158 151 131 128 119 118 116 121 120 113 124 130 116 106 90
194 200 231 247 242 233 239 255 246 245 234 222 213 215 215 215 217 220 220 220 221 222 217 215 207 197 186 182 179 172 169 165 166 165 175 170 144 134 141 143 131 142 144 124 126 138 124 114 102
174 211 234 226 232 231 249 253 233 241 232 235 235 235 232 230 224 221 218 219 219 217 212 207 206 196 191 189 186 176 170 171 168 165 177 171 162 166 159 147 146 123 132 143 127 141 132 126 125
188 216 237 222 228 224 240 255 240 233 239 247 248 247 242 238 237 233 224 220 217 210 205 202 199 195 193 190 186 178 177 174 169 169 175 181 180 178 167 162 168 149 137 138 143 175 158 165 182
211 237 244 238 217 233 239 261 259 244 248 255 256 255 249 246 243 237 226 216 212 205 197 196 194 192 191 189 183 176 177 178 176 175 181 189 190 186 178 178 178 176 165 162 173 207 206 195 205
231 237 243 245 239 248 251 260 270 263 258 259 258 256 252 250 246 233 221 212 207 202 194 191 190 187 183 183 181 174 176 183 184 187 194 201 200 197 188 180 189 192 190 189 190 196 215 223 221
239 242 255 262 265 260 258 266 270 268 258 257 254 250 252 255 255 234 212 207 201 197 192 190 190 191 186 188 189 193 199 203 203 200 207 209 209 205 199 190 195 202 207 211 205 206 199 226 247
237 249 261 274 268 270 271 271 268 259 252 251 252 252 254 261 255 230 209 204 204 200 197 195 196 197 197 201 203 208 203 212 211 207 210 215 218 214 206 201 201 205 209 213 212 210 213 217 232
238 244 258 273 294 256 280 269 245 246 248 252 255 256 258 255 249 229 218 212 210 208 205 202 203 204 204 201 193 178 186 204 211 214 218 220 221 217 215 213 210 204 206 214 215 211 216 218 218
247 251 257 263 270 263 260 276 249 243 252 253 256 258 260 257 245 228 218 215 212 214 212 210 205 205 205 202 200 193 203 212 226 224 223 222 223 221 216 214 214 211 212 214 213 216 224 216 219
254 260 249 261 257 265 244 256 266 243 258 259 256 259 264 257 245 230 224 221 220 217 215 215 210 207 207 207 207 206 212 213 215 219 222 223 222 222 219 215 214 214 218 219 216 215 222 220 221
199 221 226 227 238 251 238 238 267 239 252 268 262 261 263 257 245 240 235 227 222 218 214 214 210 211 211 211 213 213 216 214 209 215 220 223 226 224 222 219 219 218 220 221 220 218 223 226 223
210 216 239 231 230 246 210 234 253 258 256 258 260 263 266 257 246 244 237 234 230 218 211 210 210 212 214 215 216 217 218 216 215 219 220 222 224 230 228 222 223 222 222 222 219 219 228 229 226
218 223 225 242 252 262 226 237 248 257 269 268 266 264 272 271 263 255 245 240 235 225 216 210 212 216 215 217 219 220 221 220 221 222 223 225 227 229 227 226 226 224 220 221 219 221 228 233 227
197 217 246 248 285 265 244 253 268 258 260 265 271 268 270 278 273 264 257 251 242 230 223 218 214 216 219 221 220 221 221 221 223 224 225 227 229 229 223 226 226 225 222 223 223 224 225 230 228
245 188 179 204 243 258 258 253 250 239 254 268 282 279 285 286 277 269 264 257 248 237 226 220 218 217 220 222 221 224 224 224 223 222 223 223 225 222 221 225 226 226 223 221 222 229 226 230 230
187 189 209 210 247 254 263 259 248 250 271 278 291 302 303 298 288 274 267 258 252 243 229 222 221 218 218 221 223 226 228 226 223 221 224 223 222 218 220 223 223 222 222 220 220 223 223 227 229
229 216 199 219 234 235 259 267 327 261 307 306 310 316 313 311 301 286 275 262 250 241 234 226 223 222 221 219 223 226 227 222 221 224 226 221 217 218 217 219 220 221 220 221 222 223 223 226 228
Height
1518 1518 1520 1522 1521 1518 1517 1518 1518 1521 1522 1526 1526 1526 1525 1525 1527 1533 1534 1532 1533 1534 1535 1536 1536 1537 1537 1537 1538 1538 1538 1538 1538 1538 1539 1539 1538 1538 1538 1538 1538 1538 1538 1538 1538 1538 1538 1538 1538
1518 1519 1522 1522 1517 1517 1518 1517 1520 1521 1525 1527 1528 1528 1527 1528 1531 1532 1531 1532 1533 1534 1535 1536 1536 1537 1537 1538 1538 1538 1538 1538 1538 1538 1539 1539 1538 1538 1538 1538 1538 1538 1538 1538 1538 1538 1538 1538 1538
1518 1519 1522 1518 1516 1514 1515 1519 1520 1524 1526 1527 1528 1528 1529 1530 1531 1531 1531 1532 1533 1534 1535 1536 1536 1537 1537 1538 1538 1538 1538 1538 1538 1538 1538 1539 1538 1538 1538 1538 1538 1538 1538 1538 1538 1538 1538 1538 1538
1519 1521 1521 1517 1516 1516 1517 1519 1523 1524 1526 1527 1527 1528 1530 1531 1531 1531 1531 1532 1534 1535 1535 1536 1536 1537 1537 1538 1538 1538 1538 1538 1538 1538 1538 1538 1539 1539 1538 1538 1538 1538 1538 1538 1538 1538 1538 1538 1538
1519 1520 1517 1516 1517 1518 1520 1522 1524 1523 1524 1526 1527 1527 1529 1530 1530 1530 1531 1532 1533 1534 1535 1535 1536 1536 1537 1537 1537 1537 1538 1538 1538 1538 1538 1538 1538 1538 1538 1538 1538 1538 1538 1538 1538 1538 1538 1538 1538
1519 1517 1515 1514 1515 1519 1521 1523 1524 1523 1524 1526 1527 1527 1529 1529 1529 1530 1531 1532 1533 1534 1534 1535 1536 1536 1536 1537 1537 1537 1537 1537 1537 1537 1537 1538 1538 1538 1538 1538 1538 1537 1537 1537 1537 1537 1538 1538 1538
1519 1515 1513 1513 1515 1518 1521 1523 1523 1523 1524 1526 1527 1526 1528 1529 1529 1530 1531 1532 1533 1533 1534 1534 1535 1535 1536 1536 1536 1536 1536 1537 1537 1537 1537 1537 1537 1537 1537 1537 1537 1537 1537 1537 1537 1537 1537 1538 1538
1517 1516 1515 1515 1515 1517 1521 1523 1524 1524 1524 1526 1527 1526 1527 1529 1528 1529 1530 1531 1532 1533 1533 1534 1534 1534 1535 1535 1535 1536 1536 1536 1536 1536 1536 1536 1537 1536 1536 1536 1536 1536 1536 1536 1536 1537 1537 1537 1537
1517 1517 1513 1514 1515 1517 1521 1522 1524 1524 1525 1525 1525 1526 1526 1526 1527 1528 1529 1530 1531 1531 1532 1532 1533 1533 1534 1534 1534 1534 1535 1535 1535 1535 1535 1535 1536 1536 1535 1535 1535 1535 1535 1535 1535 1535 1536 1536 1537
1516 1513 1512 1515 1516 1518 1520 1521 1522 1523 1523 1523 1524 1524 1525 1525 1526 1527 1528 1528 1529 1529 1530 1531 1531 1531 1532 1532 1533 1533 1533 1534 1534 1534 1534 1534 1535 1535 1534 1534 1534 1534 1534 1534 1534 1534 1535 1535 1536
1515 1513 1515 1517 1518 1519 1520 1521 1522 1521 1520 1521 1522 1522 1523 1524 1525 1525 1526 1527 1527 1528 1528 1529 1529 1530 1530 1531 1531 1531 1532 1532 1532 1532 1533 1533 1533 1533 1533 1533 1534 1533 1533 1533 1533 1534 1534 1534 1534
1516 1516 1517 1517 1518 1519 1519 1520 1520 1519 1519 1520 1520 1520 1521 1522 1522 1523 1524 1525 1525 1526 1526 1527 1527 1527 1528 1529 1529 1530 1530 1530 1531 1531 1531 1531 1531 1532 1532 1532 1532 1532 1532 1532 1532 1532 1533 1533 1533
1515 1516 1517 1518 1518 1519 1519 1519 1518 1517 1518 1517 1518 1518 1519 1519 1520 1521 1522 1522 1523 1523 1524 1524 1525 1525 1526 1526 1527 1528 1528 1528 1529 1529 1529 1530 1530 1530 1530 1531 1531 1531 1531 1531 1531 1531 1531 1532 1532
1515 1516 1517 1517 1517 1518 1518 1517 1517 1514 1516 1516 1516 1516 1517 1517 1517 1518 1518 1519 1519 1520 1521 1521 1522 1523 1523 1524 1525 1525 1526 1526 1527 1527 1527 1528 1528 1528 1529 1529 1529 1529 1529 1529 1529 1530 1530 1530 1530
1515 1515 1515 1515 1516 1516 1517 1513 1512 1512 1514 1514 1514 1514 1514 1514 1515 1514 1515 1515 1516 1517 1518 1518 1519 1520 1521 1521 1522 1523 1523 1524 1524 1525 1525 1526 1526 1527 1527 1527 1527 1527 1528 1528 1528 1528 1528 1528 1529
1514 1513 1510 1512 1514 1515 1517 1506 1508 1510 1511 1511 1511 1511 1511 1511 1511 1511 1512 1512 1513 1514 1514 1515 1516 1517 1518 1519 1519 1520 1521 1521 1522 1523 1523 1524 1524 1525 1525 1525 1525 1526 1526 1526 1526 1526 1526 1527 1527
1510 1508 1507 1509 1512 1513 1512 1504 1506 1508 1508 1508 1508 1508 1508 1508 1508 1508 1508 1509 1509 1510 1511 1512 1513 1514 1515 1516 1516 1517 1518 1519 1520 1520 1521 1521 1522 1522 1522 1523 1523 1523 1524 1524 1525 1525 1525 1525 1525
1506 1505 1506 1506 1509 1510 1508 1503 1503 1505 1505 1504 1504 1504 1504 1504 1504 1504 1505 1505 1506 1507 1508 1509 1510 1511 1512 1513 1514 1514 1515 1516 1517 1517 1518 1519 1519 1520 1520 1520 1521 1521 1521 1522 1522 1523 1523 1523 1523
1507 1506 1504 1505 1509 1509 1504 1501 1499 1501 1501 1500 1500 1500 1500 1501 1501 1501 1502 1502 1503 1504 1504 1506 1507 1508 1509 1509 1510 1511 1512 1513 1514 1515 1515 1516 1516 1517 1517 1518 1518 1519 1519 1519 1520 1520 1521 1520 1521
1509 1507 1504 1506 1509 1509 1503 1498 1495 1496 1496 1497 1496 1496 1497 1497 1497 1498 1498 1499 1499 1500 1501 1502 1504 1505 1505 1506 1507 1508 1509 1509 1510 1511 1512 1512 1513 1514 1514 1515 1515 1516 1516 1517 1517 1517 1518 1518 1518
1506 1505 1505 1506 1508 1507 1505 1492 1489 1490 1493 1493 1494 1493 1493 1493 1493 1494 1494 1495 1496 1497 1498 1499 1500 1501 1502 1503 1504 1505 1506 1506 1507 1508 1508 1509 1509 1510 1511 1511 1512 1513 1513 1513 1514 1514 1515 1515 1515
1504 1507 1508 1508 1506 1500 1504 1492 1482 1485 1488 1489 1490 1490 1489 1490 1490 1490 1491 1492 1492 1494 1495 1496 1497 1498 1499 1500 1500 1501 1501 1502 1503 1504 1504 1505 1506 1506 1507 1508 1508 1509 1510 1510 1511 1511 1512 1512 1512
1506 1508 1508 1508 1506 1505 1501 1500 1480 1482 1483 1483 1485 1486 1486 1487 1487 1487 1488 1488 1489 1490 1491 1492 1493 1494 1495 1496 1497 1497 1498 1499 1500 1500 1501 1501 1502 1503 1503 1504 1505 1505 1506 1506 1507 1507 1508 1508 1509
1509 1509 1509 1509 1506 1504 1496 1496 1479 1477 1479 1480 1482 1483 1483 1484 1484 1485 1485 1485 1486 1487 1488 1488 1489 1490 1491 1492 1493 1494 1494 1495 1495 1496 1497 1498 1498 1499 1499 1500 1501 1501 1502 1503 1503 1504 1504 1505 1505
1508 1506 1503 1500 1499 1490 1495 1494 1480 1476 1479 1480 1480 1480 1481 1481 1482 1482 1482 1481 1482 1482 1483 1484 1485 1486 1487 1487 1488 1489 1490 1491 1491 1492 1493 1493 1494 1495 1495 1496 1497 1497 1498 1499 1499 1500 1500 1501 1501
1505 1503 1501 1496 1488 1484 1494 1486 1474 1477 1479 1479 1479 1479 1479 1479 1479 1478 1478 1478 1478 1478 1479 1480 1481 1481 1482 1483 1484 1485 1486 1487 1487 1488 1489 1489 1490 1491 1492 1492 1493 1493 1494 1494 1495 1495 1496 1497 1497
1504 1502 1503 1502 1503 1497 1481 1478 1475 1475 1476 1477 1477 1477 1477 1476 1476 1475 1475 1475 1474 1475 1475 1476 1476 1477 1477 1478 1479 1480 1481 1482 1482 1483 1484 1485 1486 1487 1487 1488 1489 1489 1489 1490 1491 1491 1492 1492 1493
1506 1504 1505 1503 1498 1486 1475 1474 1469 1470 1471 1473 1474 1474 1474 1474 1473 1472 1472 1471 1471 1471 1472 1472 1473 1473 1473 1474 1474 1475 1476 1477 1478 1479 1480 1481 1481 1482 1483 1483 1484 1485 1485 1486 1487 1487 1488 1488 1489
1506 1506 1503 1499 1497 1488 1476 1468 1467 1469 1470 1471 1472 1472 1472 1471 1471 1470 1469 1469 1468 1468 1469 1469 1469 1469 1470 1470 1470 1471 1472 1473 1474 1475 1476 1476 1477 1478 1478 1479 1480 1481 1481 1482 1482 1483 1484 1484 1484
1502 1500 1501 1499 1498 1495 1483 1473 1470 1471 1471 1472 1471 1470 1470 1469 1468 1467 1467 1466 1466 1466 1466 1466 1466 1466 1466 1466 1467 1467 1468 1469 1470 1470 1471 1472 1472 1473 1474 1475 1476 1476 1477 1477 1478 1479 1479 1480 1480